Wind_Speed
42 42 42 42 42 42 41 41 40 40 39 38 38 38 37 37 36 37 39 40 41 42 42 42 42 42 43 46 48 50 52 52 54 55 55 55 54 53 51 49 49 48 48 48 47 47 47 46 46 45 45 44 42 41 39 37 35 33 32 30 26 23 21 21 21 21 20 18 15 12 10 8 8 9 9 11 12 11 10 13 15 14 14 15 17 21 26 28
44 44 44 44 44 44 44 43 43 42 41 41 41 40 40 40 39 39 40 42 43 44 45 45 45 45 45 47 48 50 51 52 53 55 57 57 57 55 53 52 51 49 49 48 48 48 48 48 48 47 46 45 44 43 41 38 36 35 34 32 29 26 24 23 22 21 21 20 20 16 11 8 6 8 11 11 12 12 13 16 17 17 17 18 18 21 25 26
45 45 45 46 46 46 46 46 45 45 44 44 43 43 42 42 42 41 42 43 44 46 47 48 48 48 48 48 49 51 51 52 54 55 57 59 59 58 56 54 53 51 50 49 49 49 49 49 49 48 47 47 46 44 42 39 37 35 34 33 31 29 28 26 25 24 23 22 22 20 15 12 9 10 12 12 15 15 15 17 18 19 20 20 20 21 22 24
47 47 47 47 47 47 47 48 48 47 47 46 46 45 45 45 45 44 44 45 46 47 49 50 51 50 50 50 51 51 52 52 53 55 57 59 59 60 59 57 56 54 52 51 51 50 50 50 49 48 48 48 47 46 43 40 38 36 35 34 33 32 30 29 28 26 26 25 25 23 19 16 15 16 16 17 19 18 17 18 19 19 19 20 20 18 18 23
49 49 49 49 49 49 49 49 49 49 49 49 48 48 47 47 48 47 47 47 48 49 50 52 53 53 53 53 53 53 53 53 54 55 56 58 59 61 61 60 58 56 55 53 53 52 51 51 50 50 49 49 48 47 44 42 39 37 36 36 35 34 32 31 30 29 28 28 28 26 23 20 18 19 19 20 20 18 18 18 17 17 16 17 17 15 17 24
51 51 51 52 52 52 52 52 52 52 51 51 51 50 50 50 50 50 50 49 50 51 52 53 55 56 55 55 55 55 54 54 55 55 56 58 59 60 61 62 61 59 58 56 55 54 53 52 51 51 50 50 49 47 46 44 42 40 39 37 36 35 34 33 32 32 31 31 30 28 27 25 21 20 20 20 19 18 18 16 14 15 15 15 15 15 19 23
52 53 53 54 54 54 54 54 54 54 54 54 53 53 52 52 52 52 52 52 52 53 54 55 56 57 58 58 58 57 57 56 56 56 56 57 58 59 61 62 63 62 61 60 58 57 55 54 53 52 51 51 50 48 47 45 44 42 41 39 38 37 36 36 35 35 34 34 33 31 30 29 26 25 23 23 23 21 19 17 14 14 14 13 14 18 21 22
51 52 53 54 56 56 57 57 57 57 56 56 56 55 55 55 55 55 55 55 54 55 56 57 58 59 60 60 61 60 59 58 58 57 56 56 57 58 60 62 64 64 63 63 61 60 59 57 55 54 52 51 50 49 49 47 46 44 43 42 41 41 40 39 38 37 37 36 35 33 32 31 30 29 28 28 27 26 24 20 16 14 13 12 17 20 21 23
50 51 52 53 55 56 57 58 59 59 59 59 58 58 58 58 57 57 57 57 57 57 58 58 60 60 61 62 63 63 61 60 60 59 58 57 57 58 59 61 63 64 65 65 65 64 62 59 57 55 53 52 52 51 51 49 48 47 46 45 44 44 43 42 41 40 39 38 37 35 34 34 33 32 32 31 29 28 27 24 22 20 18 19 22 22 22 26
52 52 52 53 54 55 57 58 60 60 61 61 61 61 61 60 60 60 60 60 60 60 60 60 61 62 63 64 65 65 64 63 62 61 60 59 59 59 59 60 62 63 65 66 67 66 64 62 60 58 57 55 55 54 53 51 50 50 50 48 46 46 45 44 43 41 40 39 38 37 36 36 35 34 34 33 30 29 29 27 26 25 23 24 25 24 25 29
55 55 55 55 56 56 57 58 59 61 62 63 64 64 63 63 63 63 63 63 62 63 63 63 63 64 65 65 66 67 67 65 64 63 63 62 61 60 60 61 61 62 64 67 68 67 66 65 64 62 60 58 57 57 56 54 53 53 52 50 49 48 47 46 45 43 41 40 39 38 38 37 37 36 36 35 32 30 30 29 28 28 27 26 27 27 29 30
57 58 58 59 59 59 59 60 61 61 62 63 65 66 66 66 66 66 66 66 65 65 65 65 65 66 66 67 68 69 69 68 67 66 65 65 64 63 62 62 62 62 64 66 67 66 67 67 66 65 63 61 60 60 59 57 56 55 54 53 52 51 50 49 48 46 43 42 41 40 40 39 38 38 37 36 34 33 31 30 30 30 29 29 29 30 31 31
57 58 59 61 61 62 63 63 64 64 64 65 66 67 68 68 69 69 69 69 68 68 68 68 68 68 68 68 69 70 70 70 70 69 68 67 66 65 64 64 64 63 64 65 65 65 66 67 67 67 66 65 64 64 62 61 59 57 56 55 55 54 52 51 49 48 45 44 43 43 42 41 40 39 39 38 36 35 34 32 32 31 31 31 31 31 32 32
56 57 58 60 61 63 64 65 67 68 68 68 67 67 68 69 71 72 71 72 72 71 70 71 71 71 70 70 70 72 72 72 72 71 70 70 69 68 67 66 65 65 65 64 63 64 66 66 67 68 69 68 67 66 65 63 61 60 59 58 57 56 54 52 51 49 47 46 46 45 44 43 42 41 40 40 38 37 36 35 34 33 33 32 32 32 32 31
55 56 57 59 60 62 64 66 68 71 72 71 71 69 69 70 72 74 74 74 74 74 74 74 73 73 72 71 72 73 73 73 73 73 72 73 72 71 69 68 67 67 65 64 63 64 66 67 67 67 69 69 69 69 68 66 64 63 62 60 59 58 57 55 53 51 50 49 48 48 47 45 44 43 42 41 40 39 38 38 37 36 35 34 34 33 32 31
55 56 57 58 60 61 63 66 69 72 74 74 75 73 72 72 74 75 76 77 77 76 77 77 76 75 74 74 74 74 75 75 75 74 75 75 75 74 72 71 69 68 67 65 64 64 65 66 67 67 68 68 69 70 69 69 68 66 64 62 61 60 59 58 55 53 53 52 51 50 49 47 45 44 44 43 42 42 41 40 39 38 36 35 35 34 33 32
54 55 57 58 60 62 64 67 70 72 74 76 78 77 76 76 75 75 76 77 78 79 80 80 79 78 77 76 75 75 75 76 76 76 76 76 76 76 75 73 72 70 69 67 65 64 65 66 67 67 67 67 68 69 70 71 71 69 66 64 63 62 62 61 57 56 55 54 53 52 51 49 48 47 46 45 44 44 43 42 41 40 38 37 36 36 35 33
53 55 58 60 63 65 66 69 71 73 75 77 80 80 80 79 77 76 76 78 79 81 83 82 81 80 79 77 77 77 77 77 77 77 77 77 78 78 77 76 75 73 70 69 67 66 66 66 67 66 66 66 66 67 70 71 71 69 68 67 66 65 65 63 61 58 57 57 56 54 52 51 50 49 48 47 46 45 45 44 42 41 40 39 38 37 36 34
55 57 59 61 63 65 66 69 72 74 77 80 82 83 83 82 80 78 78 78 79 81 83 84 84 83 82 80 80 80 80 79 79 79 79 79 79 79 79 78 77 75 73 71 70 69 68 68 67 66 67 67 67 68 70 70 69 69 69 69 69 68 67 66 64 61 59 59 58 55 54 53 51 51 50 49 48 47 46 46 45 43 42 41 40 38 37 35
54 56 58 60 62 64 66 69 73 76 79 82 83 84 85 84 83 81 79 78 78 80 82 84 86 86 84 83 83 83 82 82 81 80 80 81 81 81 80 80 78 77 76 74 73 71 70 69 67 68 69 69 69 69 69 68 67 68 69 70 70 69 68 66 65 63 60 60 59 56 55 54 53 53 52 51 50 49 48 48 47 46 44 42 41 40 38 36
53 57 60 62 65 67 69 72 75 77 80 82 84 85 85 85 84 83 81 79 78 79 81 83 86 88 87 87 87 86 85 84 83 82 82 82 82 82 81 81 80 79 78 77 76 74 71 70 70 71 70 70 69 69 67 66 66 66 68 69 69 69 68 66 65 63 62 62 60 58 57 56 55 54 53 52 51 50 49 49 48 47 45 44 42 41 38 36
60 64 67 68 69 69 70 72 74 76 78 80 82 83 83 83 84 83 81 80 80 80 82 83 85 88 89 90 90 88 87 86 85 84 83 83 83 82 82 81 81 81 80 79 78 75 73 72 74 73 72 71 70 69 67 66 65 65 66 68 68 69 68 67 66 64 63 62 61 61 60 58 56 55 53 53 51 50 50 49 48 47 45 44 42 40 38 35
69 72 72 70 68 68 68 68 70 72 73 75 77 78 78 79 81 81 81 81 80 81 82 83 84 87 90 92 92 90 89 88 87 85 84 84 83 83 83 83 83 82 81 80 79 77 76 77 78 76 74 73 72 71 68 66 65 64 66 67 68 68 67 66 66 64 62 61 61 61 60 58 56 55 54 53 51 49 49 48 47 46 44 43 41 39 37 35
75 73 71 67 64 63 62 63 64 66 67 68 69 70 71 73 76 78 80 80 80 81 82 83 84 85 88 91 93 93 92 91 89 88 87 86 85 84 84 84 84 83 82 82 81 80 81 82 81 78 76 74 73 72 69 66 65 65 66 66 67 67 67 66 65 63 61 59 60 60 59 57 55 54 53 52 50 48 48 47 47 45 44 42 40 38 36 34
74 70 66 62 59 57 56 56 58 59 60 61 62 64 67 70 72 75 77 78 80 81 82 83 85 86 87 90 93 94 95 94 92 91 89 88 87 86 86 86 85 85 84 84 83 82 83 83 81 79 77 76 74 73 71 69 67 67 67 67 67 67 67 65 63 61 59 57 57 57 57 57 55 52 50 50 49 47 46 46 45 44 43 41 39 37 35 34
69 64 60 55 52 50 49 50 51 52 52 54 56 60 63 66 69 71 74 76 79 80 82 84 85 86 87 88 90 93 96 96 95 93 92 91 90 89 88 87 87 86 86 84 83 83 84 83 82 81 80 78 77 75 73 71 69 68 69 69 69 68 67 64 62 59 57 55 53 52 53 54 53 50 47 48 48 45 44 44 43 43 41 39 37 36 35 33
62 57 52 48 46 44 43 44 45 46 47 49 53 56 59 62 65 68 71 74 77 79 81 84 85 86 86 88 89 92 95 97 98 96 95 94 93 91 90 89 88 87 86 85 84 84 85 84 84 83 82 80 78 77 75 74 71 71 73 72 70 69 67 64 62 59 57 54 51 49 48 49 50 49 46 44 43 42 41 42 42 40 39 37 36 34 34 33
57 51 46 42 40 39 38 38 39 41 42 45 49 52 55 59 63 66 69 73 76 78 80 83 84 85 86 88 89 91 94 98 99 99 98 97 96 94 92 91 89 87 86 86 85 86 85 85 84 83 82 81 80 79 78 76 74 74 75 74 72 70 68 65 63 60 57 54 52 49 47 45 47 49 45 40 39 39 39 39 40 39 37 36 34 33 33 33
52 47 42 38 35 34 33 32 34 36 38 42 46 49 52 56 60 64 68 72 74 76 80 82 84 86 87 89 90 91 94 97 99 100 100 100 98 96 94 92 90 88 87 87 87 87 86 85 85 84 83 82 82 81 80 78 77 77 77 75 74 72 69 66 64 61 58 55 53 51 48 45 45 46 45 43 42 41 40 38 38 38 36 35 33 32 33 33
50 44 39 34 32 31 29 28 30 32 35 38 42 45 49 52 56 60 65 69 72 75 78 81 84 85 87 89 91 92 95 97 98 101 101 101 100 98 96 94 91 90 88 89 89 88 88 87 86 85 85 85 85 84 82 81 81 80 79 77 76 74 71 68 65 63 60 57 55 52 49 46 45 45 47 48 46 44 41 39 39 38 36 34 33 32 33 33
48 42 37 32 30 28 26 25 26 29 31 34 38 41 45 48 52 56 61 66 69 72 76 79 82 84 86 89 91 94 96 98 99 101 102 102 101 99 97 95 93 91 90 90 90 89 89 89 88 87 87 86 86 85 84 83 83 83 81 79 78 77 74 71 68 65 63 59 57 54 51 49 47 47 49 51 50 47 44 42 40 39 36 34 32 32 32 33
47 41 35 30 27 25 23 22 23 25 28 30 33 37 41 45 50 54 58 62 64 67 71 75 79 83 86 89 93 95 98 100 100 100 101 102 102 101 99 97 95 93 91 91 90 90 90 89 89 89 88 86 86 86 85 85 85 84 83 81 80 79 77 74 71 68 66 63 60 57 55 52 51 51 52 53 53 50 46 42 40 39 36 34 33 32 32 32
46 39 34 29 25 22 20 19 20 22 25 27 30 34 38 43 48 51 55 57 59 62 66 71 75 80 84 88 92 96 98 99 100 100 100 101 102 102 101 100 98 96 94 93 92 91 90 90 90 90 88 87 86 86 86 85 86 85 84 83 81 80 78 76 73 71 69 67 64 61 59 57 56 56 56 56 55 52 45 41 40 38 37 35 33 32 32 31
45 38 33 28 23 20 17 17 17 19 22 25 29 33 37 41 45 49 52 54 57 60 63 67 71 75 80 84 89 94 97 99 100 100 100 101 102 103 103 102 100 98 97 96 94 93 92 91 91 91 89 88 88 87 87 86 86 85 85 84 82 81 80 78 76 74 72 71 69 65 64 62 61 60 58 56 54 51 45 39 38 38 38 36 34 33 32 32
45 38 32 28 22 18 15 14 15 18 21 25 28 32 35 39 43 47 50 53 55 58 61 63 67 71 75 80 85 90 94 97 99 101 101 101 102 104 104 103 102 100 99 98 97 95 94 93 93 91 90 89 89 89 89 87 86 86 86 85 84 82 81 80 78 77 75 75 73 70 68 66 64 62 59 56 54 52 47 40 37 37 38 36 34 33 33 31
45 38 32 27 22 17 13 12 13 16 20 24 27 30 34 38 42 46 50 53 55 57 59 60 63 66 70 74 79 83 88 92 96 99 101 101 102 103 104 103 103 102 101 100 99 97 95 95 94 93 91 91 91 91 91 90 89 88 87 86 84 83 82 81 80 79 78 77 76 74 72 70 67 63 60 57 54 53 50 45 40 38 37 36 34 33 32 31
46 39 33 27 22 17 13 10 11 14 18 22 26 29 33 37 42 46 50 52 55 56 57 58 60 61 64 68 72 76 81 86 91 96 99 100 101 101 103 103 103 103 102 102 101 99 98 96 95 94 93 93 93 93 92 92 92 90 88 87 86 84 83 82 81 79 79 79 79 78 75 72 69 64 61 58 55 54 52 48 45 41 38 37 37 35 33 32
47 39 34 29 23 17 13 10 10 12 15 19 23 27 31 36 40 44 47 50 53 55 56 56 57 58 60 63 66 71 75 80 86 91 96 99 100 100 101 102 103 102 103 103 103 102 100 99 98 96 95 95 94 94 94 94 93 91 90 89 88 87 85 83 82 80 79 79 80 80 77 73 70 66 63 60 57 55 54 51 49 45 41 40 39 37 34 33
49 40 34 30 25 19 14 10 9 10 13 17 21 24 29 33 37 41 44 48 50 53 54 54 55 56 58 60 63 66 70 75 81 87 93 97 99 99 100 101 102 102 102 103 103 103 103 102 101 99 98 97 96 96 97 95 93 92 91 91 91 90 88 86 85 83 82 81 81 82 80 75 72 69 66 63 59 57 56 55 52 49 47 45 42 39 38 35
51 42 35 31 27 22 16 11 8 9 11 14 18 22 27 32 35 39 42 46 49 51 53 53 54 55 57 59 61 63 66 70 76 83 89 95 98 100 100 100 101 102 103 103 104 104 104 104 103 102 101 100 99 99 98 97 95 93 93 92 91 91 89 88 88 87 85 84 83 84 83 78 74 71 69 66 63 60 58 57 56 53 52 50 46 43 41 39
54 44 37 33 29 24 18 13 9 8 9 12 16 21 25 29 33 37 40 44 47 50 53 54 54 55 57 59 61 62 64 66 70 76 82 89 95 100 102 102 102 103 103 104 105 106 106 106 106 106 104 104 103 102 100 98 96 95 94 93 92 91 90 89 88 88 87 86 86 86 84 80 76 74 71 69 67 64 61 60 59 57 56 54 51 47 45 44
58 48 39 34 30 25 20 15 11 8 8 11 14 18 21 25 30 34 38 42 46 50 52 54 55 56 57 59 60 62 63 65 67 70 75 81 88 95 100 103 103 104 105 106 107 108 109 108 108 109 108 107 107 106 103 101 99 97 96 94 93 92 91 90 89 89 88 87 87 86 85 82 79 76 74 72 70 68 66 64 61 60 58 57 56 53 49 47
63 54 44 36 30 26 22 17 13 9 8 9 12 15 18 22 27 31 35 40 44 48 51 53 54 55 56 57 58 60 61 63 64 66 70 75 81 88 95 100 103 105 106 108 109 111 111 110 111 111 111 110 110 109 107 105 102 100 98 96 94 94 93 91 91 90 90 88 87 86 86 84 81 79 77 75 73 72 70 68 65 63 61 60 59 58 54 50
67 58 48 39 32 28 24 20 15 12 9 8 10 13 16 20 24 28 32 36 41 45 48 51 54 55 56 57 58 59 60 60 62 64 66 70 75 82 89 96 102 106 108 109 110 112 112 112 112 113 113 113 112 111 110 108 106 104 101 99 97 95 94 93 93 92 91 90 88 87 87 85 83 81 80 77 76 74 73 71 69 67 65 62 61 60 58 54
71 61 52 43 35 30 26 21 17 13 10 9 9 11 15 18 22 25 29 34 38 42 45 49 52 54 56 57 58 59 59 59 60 62 64 66 70 75 82 89 96 103 107 108 109 110 111 112 112 113 114 114 112 112 111 110 108 106 104 102 100 98 96 95 95 94 92 91 89 88 88 86 84 83 82 80 78 76 74 73 72 71 69 66 63 62 61 58
73 63 55 47 40 33 28 23 19 15 11 9 9 10 13 17 20 23 26 31 35 39 42 45 48 51 53 55 57 58 59 59 60 61 63 65 67 70 76 83 90 96 102 106 108 109 109 110 112 113 114 114 112 112 111 110 109 108 106 105 103 102 100 98 97 95 94 92 91 90 88 87 85 84 83 82 80 78 77 75 74 74 72 69 66 65 64 62
74 65 57 50 44 37 32 27 22 18 13 10 9 9 11 14 18 21 24 28 32 36 39 42 45 48 50 53 55 58 59 59 60 61 62 64 65 68 71 76 82 88 94 100 105 107 109 110 111 113 114 114 113 112 112 111 110 109 108 107 106 105 103 102 100 98 96 94 93 91 89 88 86 85 84 84 82 81 79 77 77 76 75 72 70 67 66 65
76 67 59 52 46 40 34 30 25 20 16 12 9 8 9 12 15 19 22 26 29 32 36 39 42 45 48 50 53 56 58 59 60 61 62 63 65 66 68 71 75 80 86 92 98 104 107 109 111 113 114 116 116 115 114 113 112 110 110 109 108 107 106 105 103 101 99 97 95 92 90 89 88 86 85 85 84 83 82 80 79 78 78 75 73 70 68 66
77 69 62 54 47 40 34 30 26 22 18 15 11 8 8 10 13 16 19 24 27 30 33 36 39 42 45 48 50 52 55 57 59 61 62 63 64 66 67 69 71 74 78 84 91 97 102 106 110 112 114 116 117 117 116 115 113 112 111 111 111 110 110 108 107 105 103 101 98 95 92 91 90 89 88 87 86 85 84 83 81 80 79 78 76 74 71 69
79 71 64 57 50 43 37 32 28 23 19 16 14 11 9 8 10 13 16 20 24 27 31 34 37 40 43 46 47 49 51 54 58 61 62 63 64 65 66 68 70 72 74 78 84 90 96 101 106 110 113 115 116 117 117 117 115 114 113 113 113 113 112 111 110 108 106 104 102 99 96 93 91 91 90 90 89 87 86 85 83 82 81 80 78 77 75 72
80 72 66 60 54 48 42 36 32 27 22 18 15 13 11 9 9 10 13 16 20 24 27 31 34 37 41 43 45 47 48 51 54 57 60 63 64 65 66 67 69 71 73 75 78 83 88 94 100 105 109 113 115 117 117 118 117 117 116 116 115 114 114 113 112 111 110 108 106 104 101 97 95 93 93 92 91 90 88 87 85 84 83 82 81 80 78 76
80 73 67 62 56 51 46 41 37 33 28 23 17 14 12 10 9 9 11 13 16 20 24 27 31 34 36 39 42 45 47 49 51 54 57 60 63 65 66 68 70 71 72 74 75 78 82 87 93 99 104 109 113 115 116 118 118 118 119 119 118 116 115 114 114 113 112 110 109 107 105 102 99 97 95 94 93 92 90 89 88 86 84 84 84 82 80 78
Wind_Direction
264 262 260 258 256 254 252 250 248 247 245 242 239 236 233 232 231 229 228 226 223 220 217 213 212 211 210 209 210 211 211 211 212 213 214 214 214 214 212 210 212 212 211 212 211 212 212 212 212 211 211 213 214 214 215 217 220 221 222 222 220 218 217 219 223 227 223 207 190 193 208 211 219 234 250 263 271 274 271 276 283 290 298 302 302 303 316 331
265 264 262 260 258 256 253 251 248 246 245 242 240 237 234 232 231 230 228 226 225 222 220 217 213 212 212 211 211 211 212 212 213 214 215 215 216 216 215 213 214 213 212 213 213 214 214 214 214 214 213 214 216 215 216 218 222 224 224 225 223 219 217 219 223 227 226 215 204 204 214 214 215 244 259 261 261 264 264 270 278 283 289 297 303 310 319 334
267 265 263 261 259 257 255 253 250 248 245 243 240 238 235 233 231 230 228 227 225 224 222 220 216 214 213 213 212 211 212 213 214 214 215 216 217 217 216 215 216 215 214 214 215 215 216 215 215 216 216 216 218 218 217 219 224 226 227 228 226 221 218 219 222 225 227 221 214 217 229 230 224 240 252 251 256 268 273 275 283 289 295 300 306 313 319 334
268 266 264 262 260 258 256 254 252 250 247 244 241 239 236 233 231 231 230 227 226 224 223 222 220 217 215 214 214 213 212 213 214 215 216 216 217 218 218 217 218 217 215 216 216 216 217 217 217 218 219 219 220 221 220 221 223 226 228 229 228 225 221 221 223 225 227 227 225 229 240 242 236 239 246 250 258 269 273 275 282 289 295 298 301 305 314 337
268 267 265 263 261 259 257 255 253 251 248 246 243 241 238 235 232 230 230 229 227 225 224 223 222 220 217 216 215 214 213 213 214 215 217 217 217 218 219 219 219 218 217 217 218 217 217 218 218 219 220 220 221 222 222 223 223 225 227 228 228 227 224 223 224 225 226 230 232 235 240 243 239 240 247 252 260 266 268 274 283 290 294 298 302 304 318 340
267 267 265 264 262 260 258 256 254 252 250 247 245 242 240 238 235 232 230 229 228 227 225 224 223 222 220 218 217 216 215 215 215 215 217 218 218 218 219 220 220 220 219 219 219 219 218 218 219 219 221 221 221 223 224 225 224 224 225 226 227 226 225 224 225 226 226 229 233 237 239 241 238 238 247 253 260 268 270 275 283 294 297 301 312 316 324 338
266 265 264 263 262 261 259 257 255 253 251 248 246 244 241 239 237 235 231 229 229 228 226 224 224 223 222 220 219 217 216 216 216 215 217 218 218 219 219 220 220 220 220 221 221 221 220 219 219 220 221 222 222 223 225 226 226 224 224 225 226 225 224 224 224 226 227 228 232 236 238 241 240 240 247 253 261 269 273 274 276 293 299 303 320 321 323 332
266 265 263 262 261 260 259 258 256 254 252 249 247 245 242 240 238 236 234 231 229 229 228 226 224 223 222 222 222 220 217 217 217 216 217 218 219 219 219 220 220 220 221 222 222 222 221 220 220 220 221 222 223 224 224 225 226 225 224 224 225 225 224 223 223 225 227 228 231 234 237 241 243 243 247 252 259 265 271 272 269 281 286 293 315 318 319 325
269 266 264 262 261 260 258 257 256 255 253 251 248 246 244 241 239 237 235 234 231 230 228 227 226 224 223 223 223 222 219 218 218 217 217 218 219 219 220 220 220 220 220 222 223 223 222 221 221 221 222 223 224 224 224 224 226 226 225 224 225 226 227 226 225 225 226 228 230 232 235 240 244 246 249 252 256 261 267 271 270 275 278 285 303 310 312 319
272 269 266 264 261 260 258 257 255 254 253 251 249 247 245 243 241 238 236 234 233 232 230 228 227 225 224 223 223 223 222 220 219 218 218 219 219 219 220 221 220 220 220 221 222 223 223 223 223 223 223 224 225 225 224 224 226 227 226 226 226 228 230 231 230 229 229 230 231 233 235 239 243 247 250 253 255 259 264 268 271 277 282 287 295 301 304 310
272 271 269 267 264 262 260 258 255 254 252 251 249 247 245 243 241 240 237 235 233 233 232 230 228 226 225 224 224 223 223 222 221 219 219 219 219 219 220 221 221 221 221 221 221 222 224 224 224 224 223 224 225 226 225 225 227 228 228 228 228 228 230 232 232 231 231 233 234 235 237 239 243 247 250 252 255 258 262 266 270 275 280 284 288 292 296 302
269 269 268 268 266 265 263 260 258 255 252 250 248 247 245 243 242 240 238 236 234 232 232 231 230 228 226 225 225 224 223 222 222 221 220 220 219 220 221 221 221 221 222 221 221 221 223 224 225 225 225 225 226 227 226 226 227 228 228 229 229 229 229 231 233 232 232 233 235 237 239 241 244 248 250 253 255 257 260 263 267 272 277 281 283 285 290 296
265 265 265 265 265 264 263 262 260 258 255 251 248 246 244 243 242 240 238 237 235 233 232 231 231 230 227 226 225 225 223 222 222 222 222 222 220 220 221 222 222 221 222 222 222 222 222 223 225 225 226 226 227 227 228 227 227 228 229 230 231 231 230 231 233 234 234 235 236 238 240 242 245 248 251 254 256 258 260 262 264 268 273 276 278 280 285 291
261 261 260 260 260 260 260 260 260 259 257 254 250 247 244 242 241 240 238 237 236 234 232 231 230 230 229 227 226 225 225 223 222 222 223 223 222 221 221 222 222 222 221 222 222 223 222 222 223 225 225 226 227 228 228 228 228 229 230 231 233 234 232 232 234 235 236 237 238 239 241 242 244 247 250 253 255 257 260 262 264 266 270 272 275 278 283 288
258 258 258 257 257 257 257 256 256 257 257 256 253 250 246 243 241 239 237 236 235 234 233 231 230 229 229 229 227 226 225 224 223 221 222 224 224 223 222 222 223 223 222 222 222 223 224 223 223 224 225 226 227 228 229 229 229 229 230 231 233 235 235 234 234 235 237 238 239 241 242 242 244 246 249 252 255 257 260 262 264 266 268 271 274 277 280 284
260 259 259 258 257 257 256 255 254 254 255 255 254 252 249 246 242 239 237 236 234 234 233 232 230 229 228 229 228 227 226 225 223 222 222 223 224 224 223 222 222 223 223 222 222 223 224 224 223 224 225 226 226 228 229 230 230 230 230 231 233 236 237 236 235 236 238 239 240 242 243 244 246 247 249 251 254 257 259 261 263 265 267 269 272 275 278 280
265 264 264 263 262 261 259 257 255 254 253 253 253 253 251 248 244 240 237 235 234 233 233 232 230 229 228 228 228 228 227 226 224 223 222 223 224 224 224 223 223 223 223 222 222 224 225 225 224 224 224 225 226 227 228 229 230 230 231 231 233 236 238 237 236 236 238 240 241 243 244 246 247 249 250 252 254 257 259 260 262 264 266 268 270 273 275 278
273 272 271 270 268 266 264 262 259 256 254 252 252 252 251 249 247 243 239 235 233 232 232 231 231 230 228 227 228 228 228 227 226 224 223 222 223 224 224 224 223 223 223 223 223 224 225 225 225 225 225 225 226 226 227 228 229 231 231 232 233 234 237 238 237 237 238 240 241 242 243 245 247 249 250 252 253 256 258 260 262 263 265 267 269 271 273 276
280 278 276 274 272 270 268 265 262 258 255 253 251 251 250 250 248 245 241 237 233 232 231 230 230 229 228 227 227 228 228 227 226 225 224 222 223 224 224 224 224 223 223 223 223 223 224 225 226 226 226 225 225 226 227 228 229 230 231 232 232 233 235 237 238 237 238 240 241 241 242 244 246 248 249 251 253 255 257 260 261 263 264 266 268 269 272 274
284 282 280 278 276 273 270 267 263 259 256 254 252 250 249 249 248 246 243 239 235 232 230 229 229 229 228 227 226 227 227 227 226 226 225 223 223 223 224 224 224 223 223 223 223 223 224 225 226 226 227 226 226 227 227 228 229 230 231 232 232 233 234 236 237 238 239 241 242 242 243 244 246 247 249 250 252 254 256 258 260 261 263 264 266 268 269 271
292 291 289 285 281 276 272 267 263 259 257 254 252 250 249 248 247 246 244 241 237 233 231 228 228 228 227 227 226 226 226 226 226 226 225 225 223 223 223 223 224 223 223 223 223 223 224 225 226 226 227 227 227 227 227 227 228 230 231 233 233 233 233 234 236 237 238 241 242 243 244 244 246 247 249 250 252 254 255 257 259 261 262 263 264 265 266 267
303 300 295 289 283 278 273 268 264 261 257 255 252 250 249 247 246 245 244 241 238 234 231 228 227 226 226 226 226 225 225 226 226 226 226 226 225 224 223 223 223 223 223 223 223 223 223 225 226 226 226 228 228 227 226 226 227 229 231 232 233 234 233 234 235 236 237 239 241 242 243 244 246 247 249 251 252 254 255 257 258 260 261 262 262 263 264 265
308 303 296 289 284 279 274 269 265 261 257 255 253 251 249 247 245 244 242 241 239 235 231 228 226 225 225 226 226 225 225 225 225 226 226 226 225 225 224 224 223 223 223 223 223 222 222 224 225 226 226 227 228 228 227 226 227 228 230 231 233 233 233 233 234 234 235 237 239 241 243 244 246 247 247 249 251 253 255 256 257 258 259 260 261 262 263 263
308 302 296 290 286 281 275 270 265 261 257 254 252 249 247 244 242 240 239 238 237 235 232 229 226 224 224 225 225 225 224 224 224 225 225 225 225 225 224 224 224 223 223 223 223 223 223 224 225 226 226 226 227 228 228 227 227 228 230 231 232 233 233 233 233 233 234 235 237 239 241 243 244 245 246 248 249 250 252 253 254 255 256 258 259 260 260 260
308 302 297 293 288 282 276 270 264 260 256 253 249 245 242 239 237 236 235 234 233 233 231 229 226 224 223 223 224 224 224 224 224 224 225 225 225 225 224 224 224 223 223 223 223 223 224 225 225 225 226 226 227 228 227 227 227 228 230 230 231 232 233 233 233 233 233 234 236 238 240 241 242 243 245 246 247 248 250 251 252 253 254 255 256 257 256 256
309 305 300 295 289 282 275 269 263 259 254 249 245 241 238 236 234 233 231 230 230 230 229 228 226 224 222 222 223 223 224 223 223 223 224 224 224 224 224 224 224 223 223 223 223 223 224 225 225 225 225 226 227 227 227 227 227 228 230 230 231 232 233 233 233 233 232 232 234 236 238 240 241 241 241 244 245 246 247 248 249 251 252 253 254 254 254 253
312 308 303 297 290 283 275 268 263 257 251 245 241 238 235 233 231 230 228 227 227 227 226 226 225 224 222 222 222 222 223 223 223 222 223 224 224 224 224 224 224 223 223 223 223 224 224 225 225 225 226 226 226 227 227 227 226 228 230 230 231 232 232 233 233 232 232 231 231 232 235 239 240 240 239 242 244 244 244 246 247 248 249 250 251 251 251 250
316 311 306 300 292 284 276 269 262 255 248 243 239 236 232 230 228 227 226 225 224 224 224 224 224 223 222 222 221 221 222 223 222 222 222 223 223 224 224 224 224 223 223 223 224 224 224 225 225 226 226 226 226 227 227 227 226 227 229 230 231 231 232 232 232 232 231 230 229 229 230 234 239 240 239 238 239 240 240 242 245 246 246 247 247 247 247 247
320 316 311 304 295 286 278 269 261 253 246 240 236 233 230 227 226 224 224 223 223 222 222 222 222 222 222 222 221 221 222 222 222 222 222 223 223 223 223 224 224 223 223 223 223 224 224 225 225 225 226 226 226 226 226 227 226 227 229 230 231 232 232 232 232 232 231 230 229 228 226 229 234 239 238 234 232 233 236 238 241 243 243 244 244 243 243 243
325 321 315 308 299 289 279 269 260 252 245 238 234 231 228 226 224 223 222 222 222 221 221 221 221 222 221 221 221 221 221 222 222 222 222 223 223 223 223 224 224 224 223 223 223 224 224 224 225 225 225 225 226 226 226 226 227 227 228 229 230 232 232 232 232 232 231 229 229 228 225 225 228 233 237 236 231 230 232 234 237 239 239 240 241 240 240 240
329 325 320 313 304 293 282 269 259 251 244 237 233 230 227 224 222 221 221 222 221 220 220 221 221 221 222 222 221 221 221 221 221 221 222 222 223 223 224 224 224 224 224 224 224 224 224 224 225 225 225 225 226 226 226 226 227 228 228 228 229 230 231 231 231 231 230 229 228 227 225 223 223 227 233 237 235 231 229 230 233 236 236 236 237 238 238 238
334 330 324 318 309 297 284 270 258 250 243 236 231 228 225 223 221 220 220 220 220 219 220 220 220 221 221 221 221 221 221 221 221 221 221 221 222 223 223 223 223 223 224 224 225 225 225 225 225 226 226 226 226 226 226 227 227 228 228 228 229 230 230 231 231 230 230 229 227 226 224 222 221 223 228 234 236 233 229 227 230 234 235 235 235 236 237 237
338 334 329 324 314 301 286 270 257 247 240 234 227 224 222 221 220 219 219 219 218 218 218 219 219 219 220 220 221 221 221 221 221 221 221 221 222 222 223 223 223 223 223 224 224 225 225 225 225 226 226 226 227 227 227 227 228 229 229 229 229 229 230 230 230 230 230 230 228 226 224 222 221 222 224 229 236 237 232 226 227 231 234 234 234 236 237 236
341 338 334 329 320 307 291 272 256 244 236 230 224 220 218 218 218 218 218 217 217 217 217 217 218 218 219 219 220 221 221 221 221 221 221 221 222 222 223 223 223 223 223 224 224 224 225 225 225 226 226 226 227 227 228 228 228 229 230 230 229 229 230 230 230 230 230 231 230 227 225 223 222 222 224 228 234 239 238 230 225 228 233 234 233 235 237 235
344 342 339 334 327 315 297 277 256 241 231 225 222 218 216 216 217 217 217 216 216 217 217 217 217 218 218 219 219 220 220 221 220 220 220 221 221 222 223 223 223 223 224 224 224 224 224 225 225 225 225 226 227 227 227 227 228 229 230 230 230 229 230 230 230 230 230 231 232 230 227 225 224 223 223 225 229 236 240 237 230 229 233 236 234 235 237 237
347 345 343 340 334 324 307 283 261 243 231 224 220 217 215 215 215 215 216 216 216 217 217 217 218 218 219 219 219 220 220 221 220 220 220 221 221 222 223 223 223 223 224 225 225 225 225 225 226 225 225 226 226 227 227 227 227 228 229 230 230 229 230 230 230 230 230 232 233 232 229 227 225 224 223 224 226 232 237 239 236 231 231 237 238 236 237 237
351 348 347 345 340 332 317 293 267 248 236 227 220 216 214 213 214 215 215 215 216 217 217 217 218 219 220 220 220 219 219 220 220 220 220 221 221 222 223 223 223 223 224 225 225 225 225 226 226 226 226 226 226 227 227 227 227 227 228 229 229 229 229 230 230 230 230 232 233 233 231 229 227 226 226 226 225 229 234 237 238 234 228 231 236 236 236 236
355 351 350 349 346 341 328 306 277 252 240 232 224 219 216 215 215 215 216 216 217 218 218 217 217 218 219 220 220 220 219 219 219 220 220 221 221 222 222 223 223 224 224 225 226 226 226 226 226 226 226 226 227 227 228 228 227 227 227 228 228 228 228 229 229 229 229 231 232 234 233 230 229 228 227 226 225 227 231 234 236 237 232 229 231 234 234 233
358 355 353 353 350 346 338 319 290 261 244 235 227 221 218 218 217 216 216 216 217 219 219 218 217 218 219 220 220 220 220 219 219 219 219 220 221 221 222 223 223 224 224 225 226 226 226 226 227 227 227 227 227 227 228 228 228 227 227 228 228 228 228 228 227 227 227 228 230 232 232 230 229 229 228 227 225 225 228 231 233 236 236 233 229 230 232 232
1 358 356 356 354 349 343 330 306 274 251 239 231 224 219 218 218 217 217 216 217 218 220 220 218 218 219 220 220 220 219 220 220 220 219 218 219 220 221 222 223 223 224 224 225 226 226 227 227 227 227 227 227 227 228 228 228 228 228 228 228 229 228 228 228 227 226 227 228 230 231 230 228 228 228 227 226 224 224 228 230 232 235 236 231 227 228 230
3 2 0 360 357 352 346 337 322 291 260 242 233 228 223 220 218 217 217 217 217 218 219 220 219 218 219 219 220 220 219 219 220 221 220 220 219 220 220 221 221 222 223 224 225 225 226 226 227 227 227 227 228 228 228 228 227 227 228 228 228 229 229 229 229 229 228 227 227 228 230 230 228 227 227 226 225 224 223 224 227 229 232 235 234 230 226 227
4 5 4 3 360 355 351 343 331 308 276 252 240 234 229 224 221 219 217 217 218 219 219 220 220 219 220 220 220 220 219 219 219 220 221 221 221 221 221 221 221 222 222 223 224 225 225 225 226 226 226 227 228 228 228 228 228 228 227 227 227 228 228 228 229 230 229 229 228 229 230 230 228 227 226 225 225 224 223 223 224 226 229 232 235 233 229 227
4 5 5 5 2 359 355 349 337 319 292 265 249 240 232 227 224 222 220 219 219 220 220 221 221 220 221 222 223 222 222 220 220 220 220 220 221 221 222 222 222 222 223 223 223 224 225 225 226 226 226 227 227 228 228 228 228 228 228 227 227 228 228 228 228 229 229 229 228 228 229 230 229 228 226 225 224 223 222 222 221 223 225 229 233 235 233 230
4 5 5 5 4 2 359 355 345 330 307 279 256 246 239 231 226 223 222 221 221 222 222 222 222 221 221 221 223 223 223 222 222 221 221 221 221 221 222 222 223 223 223 224 224 225 225 225 226 227 227 227 227 228 228 228 228 228 228 228 227 228 228 228 228 228 229 229 228 228 228 229 229 229 227 225 224 223 222 221 221 221 222 224 229 234 235 232
3 4 4 4 5 5 2 359 353 342 322 295 267 248 242 238 233 226 223 223 223 224 224 224 224 223 222 222 222 223 223 222 222 222 222 222 221 221 222 223 223 224 224 224 225 226 226 227 227 228 228 228 227 228 228 228 228 229 229 229 228 228 228 228 228 228 228 229 228 228 228 228 228 228 228 227 225 223 222 221 221 221 220 221 223 229 235 235
3 3 3 3 5 5 4 1 357 352 339 312 285 258 243 240 238 233 228 225 225 225 226 226 226 226 225 224 224 224 223 223 222 222 222 222 222 222 223 224 224 224 224 225 225 226 227 228 228 229 229 229 228 229 229 229 229 229 229 229 229 229 229 229 229 228 228 228 228 228 227 227 227 227 228 227 226 224 223 221 221 222 221 220 220 224 230 235
2 3 3 3 4 4 5 3 359 356 350 333 306 278 254 242 239 236 233 230 228 228 228 227 228 228 227 226 225 225 225 224 223 223 222 222 222 223 224 224 225 225 225 225 226 226 227 228 228 229 230 230 229 229 229 229 229 229 229 230 230 230 230 229 229 229 228 228 228 227 227 227 226 226 227 227 227 225 224 222 221 222 222 220 219 221 225 230
1 2 4 4 4 4 3 2 359 357 353 347 328 298 272 254 243 239 236 234 231 230 230 230 229 230 230 228 226 226 226 225 224 224 224 222 222 223 224 225 226 226 226 226 226 227 227 228 228 229 230 230 229 229 229 229 229 229 229 229 229 230 230 230 230 230 229 229 228 227 227 227 226 226 226 226 226 225 224 223 221 222 222 221 219 219 221 225
0 1 3 4 5 6 5 4 2 359 355 350 341 323 294 269 254 244 240 238 235 232 231 230 230 231 232 232 229 228 227 227 226 226 225 224 223 223 224 225 226 227 227 227 227 227 227 228 229 229 230 230 230 229 229 229 229 229 229 229 229 229 229 229 229 230 230 229 229 227 226 226 226 226 225 225 225 225 224 223 222 221 222 221 220 219 220 222
360 1 2 3 4 5 7 8 8 5 1 355 347 338 321 292 269 254 245 241 239 236 233 232 230 229 231 232 232 230 228 227 227 227 227 226 225 224 224 225 226 227 227 227 227 227 227 228 229 229 230 230 230 230 229 229 229 229 229 229 229 229 229 229 229 229 229 229 229 228 227 226 226 225 225 225 225 224 224 223 222 221 221 221 220 219 219 220
359 0 1 2 3 4 5 8 10 10 8 4 356 346 336 318 294 272 256 248 244 241 238 236 234 231 230 231 231 231 230 228 228 228 228 228 227 226 225 226 226 227 228 229 228 228 227 227 228 229 230 231 231 231 230 229 229 229 229 229 229 229 229 229 229 229 228 228 229 228 227 226 226 225 225 225 225 224 223 223 222 221 221 221 221 220 219 219
359 359 0 1 2 3 4 6 8 9 9 9 5 357 347 334 317 294 274 261 253 247 243 241 239 236 234 233 232 232 231 229 227 227 227 228 228 227 226 227 227 228 228 229 230 229 229 228 228 229 230 231 231 231 231 230 229 229 229 229 229 229 229 229 229 229 229 228 228 228 227 226 226 225 225 226 226 224 223 222 222 221 220 221 221 220 219 218
Height
10899 10900 10900 10901 10901 10902 10903 10904 10905 10906 10908 10909 10910 10912 10913 10914 10916 10917 10919 10920 10922 10923 10924 10926 10928 10929 10931 10933 10935 10938 10940 10943 10945 10947 10949 10951 10953 10955 10958 10960 10961 10964 10966 10968 10971 10972 10974 10976 10977 10979 10981 10983 10985 10987 10989 10991 10993 10994 10995 10997 10999 11002 11003 11003 11004 11005 11006 11008 11008 11009 11009 11010 11011 11010 11010 11009 11009 11009 11009 11010 11010 11010 11010 11010 11010 11010 11010 11008
10894 10895 10895 10896 10896 10897 10898 10899 10900 10901 10902 10904 10905 10907 10908 10910 10911 10912 10914 10916 10917 10919 10920 10921 10923 10925 10927 10929 10931 10933 10936 10939 10941 10943 10945 10947 10949 10952 10955 10957 10959 10961 10964 10966 10968 10970 10972 10973 10975 10977 10979 10981 10982 10984 10987 10989 10990 10992 10994 10995 10997 11000 11001 11002 11003 11003 11004 11006 11007 11007 11008 11009 11009 11009 11008 11008 11007 11008 11008 11009 11008 11008 11009 11010 11010 11011 11010 11008
10888 10888 10889 10890 10890 10891 10892 10893 10894 10896 10897 10898 10900 10901 10903 10905 10906 10907 10909 10911 10912 10914 10916 10917 10918 10920 10922 10924 10926 10929 10932 10934 10936 10939 10940 10943 10946 10948 10951 10954 10956 10958 10961 10963 10965 10967 10968 10970 10972 10974 10977 10978 10980 10982 10985 10988 10989 10991 10992 10993 10995 10997 10999 11000 11001 11002 11003 11004 11005 11005 11006 11007 11008 11007 11007 11006 11005 11006 11007 11007 11007 11008 11009 11010 11010 11010 11010 11009
10882 10882 10883 10883 10884 10885 10886 10887 10888 10890 10892 10893 10895 10896 10897 10899 10901 10902 10904 10905 10907 10909 10911 10912 10914 10916 10917 10920 10922 10924 10927 10929 10932 10934 10936 10939 10942 10944 10947 10950 10952 10955 10958 10960 10961 10963 10965 10967 10970 10972 10974 10976 10978 10980 10983 10986 10988 10989 10990 10990 10992 10995 10997 10999 11000 11001 11001 11002 11003 11004 11005 11005 11006 11006 11006 11005 11004 11005 11006 11006 11006 11007 11009 11010 11010 11010 11010 11009
10876 10876 10876 10877 10877 10878 10879 10880 10882 10883 10885 10887 10889 10891 10892 10894 10895 10896 10898 10900 10902 10903 10905 10907 10908 10911 10913 10914 10916 10919 10922 10924 10927 10929 10931 10934 10937 10940 10943 10946 10948 10951 10954 10956 10957 10960 10962 10965 10967 10969 10971 10973 10975 10977 10981 10983 10985 10987 10987 10988 10990 10992 10995 10997 10998 10999 11000 11001 11001 11002 11003 11004 11005 11005 11005 11004 11004 11004 11005 11005 11006 11007 11009 11010 11010 11010 11009 11008
10869 10869 10869 10869 10870 10871 10872 10873 10875 10876 10878 10880 10883 10885 10887 10888 10889 10891 10892 10894 10896 10897 10899 10901 10903 10905 10908 10909 10911 10914 10917 10919 10921 10924 10927 10929 10932 10935 10938 10941 10944 10947 10950 10952 10953 10956 10958 10961 10963 10966 10968 10970 10973 10975 10978 10980 10982 10983 10984 10986 10988 10990 10992 10994 10995 10996 10998 10999 10999 11001 11002 11003 11004 11004 11004 11003 11003 11003 11004 11004 11006 11007 11009 11009 11010 11009 11008 11007
10862 10862 10862 10862 10862 10863 10864 10865 10867 10869 10871 10873 10875 10878 10880 10882 10884 10885 10887 10888 10890 10891 10893 10895 10897 10899 10902 10904 10906 10908 10911 10914 10916 10919 10922 10924 10927 10930 10933 10936 10939 10943 10946 10947 10949 10952 10954 10957 10960 10963 10965 10967 10970 10973 10975 10977 10978 10980 10982 10984 10985 10987 10988 10990 10992 10993 10995 10996 10998 10999 11001 11001 11002 11003 11003 11002 11002 11003 11004 11004 11006 11007 11008 11009 11009 11009 11008 11007
10855 10854 10854 10854 10855 10855 10856 10857 10859 10861 10862 10865 10867 10870 10872 10875 10877 10878 10880 10882 10884 10885 10886 10889 10890 10893 10896 10898 10900 10902 10906 10909 10911 10914 10917 10919 10922 10924 10927 10930 10933 10938 10941 10943 10945 10947 10950 10953 10956 10959 10962 10965 10968 10969 10971 10973 10975 10978 10980 10980 10981 10983 10984 10986 10988 10990 10991 10993 10995 10997 10999 10999 11000 11001 11001 11001 11002 11003 11003 11005 11006 11007 11008 11008 11009 11008 11008 11006
10847 10847 10847 10846 10846 10847 10847 10848 10850 10852 10854 10856 10859 10861 10864 10866 10869 10871 10873 10875 10877 10878 10880 10882 10884 10886 10889 10891 10893 10896 10901 10903 10905 10909 10911 10914 10916 10919 10921 10924 10928 10932 10935 10937 10939 10942 10945 10949 10953 10956 10959 10962 10963 10964 10966 10969 10971 10973 10975 10976 10978 10979 10981 10982 10985 10987 10989 10991 10993 10995 10996 10997 10998 10998 10999 10999 11001 11002 11003 11004 11005 11006 11007 11007 11007 11008 11007 11006
10839 10839 10838 10838 10838 10838 10839 10839 10841 10842 10844 10847 10849 10852 10855 10858 10860 10862 10865 10868 10870 10872 10873 10875 10877 10880 10882 10884 10887 10890 10894 10898 10900 10903 10905 10908 10910 10913 10915 10918 10922 10926 10929 10931 10933 10938 10942 10946 10949 10952 10954 10956 10958 10960 10963 10966 10968 10968 10970 10973 10976 10977 10979 10980 10983 10986 10987 10989 10991 10992 10994 10994 10995 10996 10996 10998 10999 11001 11001 11003 11004 11004 11005 11006 11006 11006 11006 11006
10831 10830 10829 10829 10830 10830 10830 10830 10831 10832 10834 10836 10839 10842 10845 10848 10851 10853 10856 10859 10862 10864 10866 10868 10870 10873 10875 10877 10880 10882 10887 10892 10894 10897 10899 10901 10904 10907 10910 10912 10916 10919 10922 10925 10929 10934 10938 10941 10943 10946 10949 10952 10954 10956 10959 10962 10963 10963 10967 10970 10972 10974 10976 10977 10980 10983 10986 10987 10989 10990 10991 10992 10993 10993 10994 10995 10997 10999 11000 11001 11002 11002 11003 11004 11004 11005 11005 11005
10822 10821 10820 10820 10820 10821 10821 10821 10821 10822 10824 10826 10828 10831 10834 10838 10841 10844 10846 10849 10853 10855 10858 10860 10862 10864 10867 10870 10873 10875 10880 10885 10887 10890 10892 10894 10898 10901 10904 10906 10910 10913 10915 10919 10925 10929 10932 10935 10938 10942 10946 10948 10950 10950 10953 10956 10958 10960 10964 10966 10967 10970 10972 10974 10976 10980 10983 10985 10986 10987 10988 10990 10991 10991 10992 10993 10995 10997 10999 11000 11000 11001 11001 11002 11003 11003 11004 11004
10814 10813 10812 10811 10811 10811 10811 10811 10811 10811 10813 10814 10817 10820 10823 10827 10830 10833 10836 10839 10842 10846 10849 10851 10853 10856 10859 10863 10865 10868 10872 10876 10880 10884 10886 10888 10892 10895 10898 10900 10903 10907 10910 10915 10920 10924 10926 10929 10933 10937 10940 10942 10944 10945 10948 10951 10955 10958 10960 10962 10963 10966 10969 10972 10974 10977 10981 10983 10984 10984 10985 10987 10989 10990 10990 10991 10993 10995 10996 10998 10998 10999 11000 11000 11001 11001 11002 11003
10805 10804 10803 10802 10802 10801 10801 10800 10800 10800 10801 10803 10805 10808 10812 10816 10818 10820 10825 10828 10831 10836 10838 10841 10844 10847 10852 10855 10858 10860 10863 10868 10873 10877 10880 10881 10885 10888 10891 10894 10897 10900 10905 10910 10915 10918 10920 10923 10927 10930 10932 10935 10939 10941 10943 10947 10951 10954 10956 10959 10960 10961 10966 10969 10972 10975 10978 10980 10981 10982 10983 10985 10987 10988 10988 10989 10991 10992 10994 10995 10996 10997 10998 10998 10999 11000 11001 11001
10797 10795 10794 10793 10792 10791 10790 10790 10789 10788 10788 10790 10793 10797 10801 10804 10805 10808 10813 10816 10820 10825 10827 10830 10834 10838 10843 10847 10850 10852 10855 10860 10865 10870 10873 10873 10877 10881 10885 10888 10891 10895 10900 10905 10909 10911 10914 10918 10921 10923 10926 10930 10934 10937 10939 10942 10946 10949 10952 10955 10957 10958 10961 10965 10968 10972 10974 10976 10978 10979 10980 10983 10985 10986 10987 10988 10989 10990 10992 10993 10994 10996 10997 10997 10997 10998 10999 11000
10787 10786 10784 10783 10781 10780 10779 10778 10777 10776 10776 10778 10780 10784 10788 10790 10791 10796 10801 10804 10809 10813 10815 10818 10823 10829 10834 10838 10841 10844 10847 10852 10857 10862 10865 10866 10870 10874 10878 10882 10885 10889 10894 10899 10902 10905 10908 10911 10915 10918 10922 10925 10928 10931 10934 10937 10940 10944 10948 10952 10954 10955 10956 10960 10965 10969 10970 10972 10974 10976 10977 10980 10983 10984 10986 10987 10987 10988 10990 10991 10993 10994 10995 10996 10996 10996 10997 10998
10777 10775 10773 10771 10769 10768 10767 10765 10764 10764 10764 10765 10766 10770 10774 10775 10779 10784 10788 10792 10797 10801 10802 10806 10813 10819 10824 10829 10833 10836 10840 10843 10848 10853 10857 10860 10863 10866 10871 10875 10878 10883 10887 10893 10897 10899 10902 10905 10908 10913 10916 10919 10922 10926 10927 10929 10934 10939 10944 10948 10951 10952 10951 10954 10960 10964 10966 10968 10970 10972 10975 10978 10980 10982 10983 10985 10986 10987 10987 10989 10990 10991 10993 10994 10994 10994 10995 10996
10766 10763 10761 10759 10757 10756 10754 10752 10750 10751 10751 10750 10752 10755 10758 10761 10766 10771 10775 10779 10783 10787 10790 10795 10802 10807 10814 10820 10824 10827 10831 10835 10839 10844 10849 10853 10855 10858 10863 10867 10872 10877 10882 10887 10890 10893 10895 10898 10903 10908 10911 10913 10915 10917 10918 10924 10931 10936 10940 10943 10946 10948 10947 10949 10954 10959 10961 10963 10965 10969 10972 10975 10977 10978 10980 10982 10984 10985 10985 10986 10988 10989 10990 10991 10992 10993 10993 10994
10754 10751 10749 10747 10744 10742 10741 10737 10736 10736 10736 10735 10737 10740 10743 10747 10751 10756 10760 10765 10770 10774 10778 10785 10791 10795 10802 10809 10813 10816 10820 10825 10829 10834 10839 10844 10847 10850 10854 10860 10865 10870 10875 10879 10883 10886 10889 10892 10898 10901 10902 10904 10907 10909 10914 10922 10928 10931 10933 10935 10939 10941 10942 10945 10949 10954 10957 10958 10961 10965 10969 10971 10973 10975 10977 10978 10980 10982 10982 10983 10984 10986 10987 10989 10990 10991 10991 10992
10743 10739 10735 10733 10730 10728 10725 10722 10719 10719 10719 10719 10721 10723 10727 10731 10736 10740 10745 10751 10757 10762 10767 10773 10777 10782 10790 10797 10800 10804 10809 10815 10820 10824 10829 10834 10839 10842 10847 10852 10858 10863 10868 10872 10875 10879 10883 10888 10892 10892 10893 10897 10901 10905 10913 10920 10923 10925 10926 10928 10932 10936 10939 10942 10945 10950 10954 10954 10957 10962 10965 10967 10969 10971 10973 10974 10976 10978 10979 10980 10981 10982 10984 10986 10987 10988 10989 10990
10730 10725 10721 10717 10714 10711 10707 10704 10702 10702 10702 10702 10703 10705 10710 10715 10720 10724 10730 10737 10743 10749 10754 10759 10764 10771 10779 10784 10787 10793 10799 10805 10810 10815 10820 10825 10830 10835 10839 10845 10850 10855 10859 10863 10868 10873 10878 10882 10882 10883 10887 10892 10897 10902 10909 10914 10917 10919 10920 10922 10926 10930 10935 10939 10941 10946 10950 10951 10953 10957 10960 10962 10965 10967 10970 10971 10973 10975 10976 10976 10977 10979 10980 10983 10984 10985 10987 10988
10716 10710 10705 10700 10696 10693 10689 10686 10684 10684 10684 10684 10686 10688 10694 10700 10705 10709 10716 10722 10728 10733 10739 10745 10752 10758 10765 10769 10774 10783 10790 10795 10801 10807 10811 10816 10822 10827 10832 10837 10841 10846 10850 10856 10862 10868 10872 10872 10872 10876 10882 10887 10891 10897 10904 10908 10911 10913 10914 10917 10920 10923 10929 10934 10938 10942 10945 10946 10950 10952 10954 10958 10961 10964 10967 10968 10970 10971 10972 10973 10974 10976 10977 10979 10981 10982 10984 10986
10701 10694 10686 10681 10678 10674 10671 10668 10666 10665 10665 10667 10670 10674 10681 10686 10690 10696 10702 10708 10713 10719 10724 10732 10738 10745 10752 10757 10764 10772 10779 10784 10792 10798 10802 10808 10813 10819 10825 10828 10832 10838 10843 10849 10855 10860 10862 10861 10863 10869 10876 10881 10885 10890 10898 10903 10906 10907 10909 10911 10913 10917 10923 10927 10933 10938 10941 10943 10946 10948 10952 10956 10958 10960 10962 10964 10966 10968 10968 10970 10971 10972 10973 10975 10977 10979 10981 10983
10685 10677 10668 10664 10660 10656 10653 10650 10648 10648 10649 10652 10656 10661 10666 10670 10674 10680 10686 10693 10700 10705 10711 10719 10726 10733 10741 10746 10752 10760 10766 10773 10780 10787 10792 10798 10803 10810 10815 10818 10824 10830 10835 10840 10846 10851 10851 10852 10857 10865 10870 10876 10880 10885 10893 10899 10901 10901 10902 10905 10907 10911 10915 10921 10928 10933 10937 10940 10942 10946 10950 10953 10954 10955 10959 10961 10963 10964 10965 10966 10967 10968 10970 10972 10974 10976 10978 10980
10668 10659 10651 10647 10643 10638 10636 10633 10632 10633 10635 10639 10642 10645 10649 10652 10657 10664 10670 10678 10684 10690 10698 10705 10712 10720 10726 10733 10740 10748 10754 10761 10769 10776 10782 10788 10793 10798 10804 10809 10815 10821 10826 10831 10837 10841 10843 10847 10854 10859 10864 10869 10874 10879 10886 10891 10894 10895 10896 10898 10901 10904 10910 10916 10923 10929 10934 10936 10939 10943 10946 10948 10950 10953 10955 10957 10959 10961 10961 10961 10963 10965 10967 10969 10971 10973 10975 10976
10651 10643 10636 10632 10627 10623 10621 10619 10618 10620 10623 10625 10627 10629 10633 10638 10644 10650 10657 10664 10669 10676 10684 10691 10698 10706 10715 10723 10730 10737 10743 10750 10758 10766 10771 10777 10782 10787 10794 10800 10805 10812 10817 10824 10830 10834 10837 10842 10847 10851 10856 10862 10867 10872 10878 10884 10889 10890 10889 10891 10894 10899 10905 10912 10918 10924 10929 10933 10936 10939 10941 10944 10946 10949 10951 10952 10955 10957 10956 10957 10958 10961 10963 10965 10967 10969 10971 10973
10637 10629 10622 10618 10613 10609 10608 10607 10607 10608 10610 10612 10613 10616 10621 10627 10633 10639 10645 10651 10657 10664 10671 10678 10686 10695 10705 10713 10719 10726 10732 10738 10746 10754 10759 10765 10771 10777 10784 10789 10796 10805 10811 10818 10823 10826 10830 10835 10840 10844 10850 10856 10861 10866 10871 10877 10883 10882 10879 10883 10889 10894 10900 10906 10912 10919 10924 10929 10933 10935 10937 10939 10940 10943 10948 10950 10952 10952 10951 10953 10954 10957 10959 10961 10963 10965 10967 10969
10624 10616 10610 10606 10601 10598 10597 10597 10596 10597 10599 10600 10602 10606 10611 10617 10622 10628 10634 10640 10646 10653 10660 10667 10675 10684 10694 10701 10708 10716 10720 10725 10734 10742 10748 10754 10761 10768 10774 10781 10789 10798 10805 10811 10814 10817 10823 10829 10832 10838 10845 10850 10855 10858 10863 10870 10875 10873 10872 10878 10884 10888 10895 10902 10907 10913 10918 10924 10928 10931 10934 10934 10933 10938 10944 10947 10947 10945 10947 10949 10951 10954 10956 10958 10961 10962 10964 10966
10612 10605 10600 10596 10591 10588 10587 10587 10587 10587 10589 10591 10593 10597 10602 10608 10613 10618 10625 10630 10636 10644 10651 10658 10665 10674 10683 10689 10697 10705 10709 10715 10723 10731 10739 10744 10751 10759 10767 10774 10782 10790 10797 10802 10805 10810 10816 10821 10825 10832 10837 10841 10845 10849 10856 10862 10865 10865 10868 10873 10877 10882 10890 10896 10901 10908 10913 10918 10923 10927 10931 10931 10930 10933 10937 10939 10939 10939 10942 10946 10948 10951 10954 10956 10959 10960 10962 10964
10602 10596 10591 10587 10583 10580 10579 10579 10579 10579 10581 10583 10586 10590 10595 10601 10606 10611 10617 10621 10629 10637 10642 10649 10656 10664 10673 10679 10687 10695 10700 10705 10713 10721 10729 10735 10743 10753 10761 10768 10775 10782 10789 10792 10796 10802 10808 10812 10817 10822 10826 10830 10834 10841 10848 10852 10854 10857 10862 10867 10871 10877 10884 10890 10896 10902 10908 10913 10918 10922 10927 10929 10929 10929 10929 10929 10931 10935 10939 10942 10944 10947 10951 10953 10956 10957 10959 10961
10594 10589 10584 10580 10576 10574 10573 10572 10572 10573 10575 10577 10580 10585 10590 10595 10599 10604 10609 10614 10622 10630 10636 10643 10651 10658 10665 10672 10678 10684 10689 10694 10701 10710 10719 10728 10737 10746 10754 10761 10767 10774 10780 10783 10788 10795 10799 10804 10809 10812 10817 10823 10829 10835 10841 10844 10846 10850 10856 10861 10865 10870 10876 10883 10890 10896 10902 10908 10913 10917 10922 10925 10925 10925 10923 10921 10925 10931 10934 10938 10941 10943 10947 10950 10952 10955 10956 10958
10588 10582 10578 10574 10570 10568 10567 10566 10567 10567 10569 10572 10576 10580 10584 10588 10592 10596 10601 10607 10616 10625 10631 10637 10644 10651 10657 10663 10668 10672 10677 10683 10691 10701 10712 10722 10730 10738 10745 10752 10758 10766 10771 10775 10782 10787 10791 10798 10802 10805 10812 10819 10823 10828 10833 10837 10839 10843 10850 10855 10859 10864 10870 10877 10883 10889 10895 10901 10907 10912 10916 10919 10920 10919 10916 10915 10918 10924 10930 10937 10939 10941 10945 10947 10950 10952 10954 10956
10583 10578 10573 10569 10566 10563 10562 10561 10562 10563 10564 10567 10571 10574 10578 10581 10585 10590 10595 10602 10610 10617 10622 10627 10632 10639 10646 10652 10657 10662 10668 10676 10686 10697 10707 10716 10722 10729 10736 10742 10749 10756 10762 10767 10772 10777 10783 10791 10794 10798 10806 10812 10816 10820 10826 10830 10833 10837 10843 10848 10854 10859 10865 10872 10878 10884 10888 10892 10898 10905 10908 10911 10912 10911 10910 10911 10914 10920 10928 10936 10938 10940 10943 10945 10948 10950 10952 10954
10579 10574 10569 10565 10562 10559 10558 10558 10558 10559 10560 10562 10565 10568 10572 10575 10580 10584 10590 10596 10602 10607 10611 10616 10622 10628 10634 10640 10646 10652 10660 10669 10680 10691 10700 10707 10713 10720 10726 10733 10741 10748 10752 10757 10762 10768 10775 10780 10784 10790 10799 10804 10807 10812 10817 10823 10828 10832 10836 10842 10849 10854 10859 10866 10871 10876 10880 10883 10889 10896 10900 10902 10904 10906 10909 10913 10917 10921 10927 10934 10939 10941 10941 10944 10946 10948 10949 10951
10576 10571 10567 10562 10559 10557 10555 10555 10555 10555 10556 10557 10560 10564 10567 10571 10575 10580 10584 10590 10594 10598 10603 10609 10614 10619 10625 10630 10636 10644 10652 10662 10673 10683 10690 10697 10704 10711 10718 10725 10733 10739 10743 10747 10753 10759 10765 10769 10774 10782 10790 10794 10798 10802 10807 10814 10820 10824 10828 10834 10841 10847 10853 10858 10863 10868 10872 10875 10880 10887 10892 10894 10898 10903 10909 10914 10918 10921 10926 10932 10938 10941 10941 10943 10946 10946 10947 10949
10574 10569 10565 10561 10557 10555 10553 10552 10552 10552 10552 10554 10556 10560 10564 10567 10570 10574 10578 10583 10587 10592 10598 10603 10608 10613 10619 10625 10631 10639 10648 10656 10666 10675 10682 10689 10697 10703 10710 10717 10724 10730 10734 10738 10744 10751 10757 10761 10766 10773 10780 10784 10787 10791 10798 10804 10809 10815 10820 10825 10833 10840 10845 10850 10855 10862 10866 10868 10871 10877 10883 10887 10893 10901 10908 10912 10917 10921 10924 10928 10932 10937 10940 10943 10944 10945 10946 10947
10573 10567 10563 10559 10556 10553 10552 10551 10550 10550 10551 10552 10554 10557 10560 10562 10565 10568 10572 10577 10581 10586 10592 10598 10604 10610 10615 10621 10627 10634 10641 10648 10657 10666 10674 10681 10688 10695 10702 10708 10715 10721 10725 10730 10735 10742 10749 10753 10757 10764 10770 10774 10778 10782 10788 10793 10799 10807 10813 10818 10825 10831 10837 10842 10849 10855 10860 10862 10864 10867 10874 10882 10890 10900 10907 10911 10916 10918 10920 10924 10926 10931 10936 10939 10940 10942 10944 10945
10573 10567 10561 10557 10555 10552 10550 10549 10549 10549 10549 10550 10552 10555 10557 10559 10562 10565 10569 10574 10578 10582 10587 10593 10599 10605 10610 10615 10621 10627 10634 10640 10647 10655 10664 10671 10678 10685 10692 10699 10706 10712 10717 10722 10727 10733 10739 10743 10747 10754 10759 10764 10769 10773 10776 10782 10790 10799 10805 10810 10814 10820 10828 10834 10841 10848 10853 10856 10856 10859 10868 10878 10886 10895 10902 10907 10912 10915 10917 10920 10923 10926 10931 10934 10935 10938 10940 10943
10573 10566 10561 10556 10553 10551 10550 10548 10547 10547 10548 10549 10551 10553 10556 10557 10560 10563 10567 10571 10575 10579 10583 10589 10595 10600 10604 10609 10613 10619 10626 10631 10636 10643 10651 10659 10666 10674 10681 10688 10696 10702 10708 10713 10717 10723 10729 10733 10737 10743 10748 10754 10759 10762 10765 10773 10783 10791 10796 10800 10805 10812 10819 10824 10829 10836 10841 10845 10848 10850 10859 10871 10881 10889 10896 10902 10908 10912 10914 10916 10919 10921 10924 10927 10931 10934 10936 10939
10573 10566 10560 10556 10553 10550 10549 10548 10547 10546 10547 10548 10549 10551 10553 10555 10558 10561 10564 10568 10571 10575 10579 10584 10590 10594 10598 10601 10605 10611 10617 10623 10627 10632 10639 10646 10653 10661 10668 10676 10683 10689 10696 10701 10706 10711 10717 10722 10726 10732 10737 10742 10745 10749 10754 10764 10773 10780 10785 10792 10798 10805 10811 10815 10819 10825 10830 10836 10839 10841 10849 10863 10874 10882 10889 10896 10902 10907 10910 10911 10914 10917 10918 10921 10925 10929 10931 10934
10574 10567 10561 10556 10552 10550 10548 10547 10546 10545 10545 10546 10547 10549 10551 10553 10555 10558 10561 10564 10567 10570 10573 10578 10583 10588 10591 10594 10598 10603 10609 10615 10620 10625 10631 10638 10644 10650 10656 10662 10668 10675 10682 10688 10692 10697 10703 10709 10713 10719 10725 10728 10732 10738 10746 10754 10762 10769 10775 10783 10790 10796 10802 10807 10812 10818 10824 10829 10831 10835 10843 10854 10865 10874 10881 10889 10895 10900 10904 10906 10909 10912 10914 10916 10918 10922 10926 10928
10574 10568 10562 10557 10553 10550 10548 10546 10545 10544 10544 10545 10545 10547 10549 10551 10553 10555 10558 10560 10563 10565 10568 10571 10576 10581 10584 10588 10591 10596 10601 10607 10612 10618 10624 10631 10637 10642 10648 10653 10658 10663 10668 10673 10678 10682 10689 10695 10698 10704 10710 10715 10720 10729 10737 10744 10752 10759 10766 10774 10781 10786 10792 10799 10804 10809 10816 10821 10825 10831 10839 10846 10856 10865 10873 10880 10886 10892 10896 10900 10904 10907 10909 10911 10912 10915 10920 10923
10573 10567 10562 10558 10554 10550 10547 10545 10544 10543 10543 10543 10544 10545 10546 10548 10550 10552 10554 10556 10558 10560 10563 10566 10570 10575 10580 10584 10587 10591 10596 10601 10607 10612 10617 10622 10628 10633 10638 10643 10648 10652 10655 10660 10664 10668 10675 10681 10685 10689 10696 10703 10710 10718 10726 10734 10741 10748 10756 10765 10772 10777 10782 10790 10795 10799 10804 10810 10818 10826 10833 10840 10848 10856 10863 10871 10877 10882 10887 10892 10897 10901 10903 10905 10907 10909 10913 10918
10573 10567 10563 10559 10554 10550 10547 10545 10543 10542 10541 10542 10542 10543 10543 10545 10547 10549 10551 10553 10554 10556 10559 10562 10565 10569 10573 10577 10580 10585 10591 10597 10602 10606 10610 10615 10619 10623 10627 10631 10636 10640 10644 10650 10655 10659 10664 10670 10674 10677 10684 10692 10699 10706 10715 10724 10732 10739 10747 10755 10763 10768 10774 10780 10785 10789 10794 10801 10810 10819 10826 10833 10841 10848 10854 10861 10868 10874 10879 10884 10890 10893 10897 10900 10902 10903 10907 10912
10573 10567 10563 10559 10555 10551 10547 10544 10543 10541 10540 10540 10540 10541 10541 10542 10543 10546 10548 10549 10550 10552 10554 10557 10559 10563 10567 10571 10574 10578 10584 10590 10595 10599 10604 10608 10611 10615 10618 10620 10624 10629 10635 10642 10648 10653 10658 10663 10666 10669 10674 10683 10692 10699 10707 10715 10723 10731 10738 10746 10754 10759 10765 10770 10775 10780 10787 10794 10802 10810 10818 10825 10834 10840 10846 10853 10860 10866 10871 10877 10882 10885 10890 10894 10898 10900 10901 10905
10573 10568 10563 10559 10555 10551 10547 10544 10542 10540 10539 10538 10537 10538 10539 10539 10540 10542 10544 10545 10546 10548 10550 10552 10555 10558 10562 10566 10569 10573 10578 10582 10587 10591 10596 10600 10604 10607 10610 10612 10615 10620 10626 10633 10639 10645 10650 10654 10658 10661 10666 10676 10686 10693 10700 10707 10715 10723 10730 10737 10744 10749 10755 10760 10765 10771 10779 10786 10791 10800 10810 10818 10826 10832 10838 10844 10852 10858 10864 10870 10874 10877 10882 10888 10893 10896 10897 10899
10575 10570 10564 10558 10554 10550 10547 10544 10541 10539 10537 10536 10535 10535 10536 10537 10537 10538 10539 10541 10543 10544 10546 10548 10550 10553 10556 10560 10564 10567 10571 10576 10579 10583 10588 10592 10596 10599 10602 10604 10608 10613 10619 10625 10630 10635 10640 10643 10647 10651 10656 10664 10674 10682 10689 10696 10704 10713 10720 10726 10733 10739 10744 10750 10756 10762 10770 10776 10782 10792 10803 10810 10817 10825 10830 10836 10843 10850 10856 10862 10866 10870 10875 10881 10887 10891 10893 10895
10576 10570 10564 10559 10554 10550 10546 10543 10540 10538 10536 10535 10533 10533 10533 10533 10534 10534 10535 10536 10538 10540 10542 10544 10546 10547 10549 10553 10557 10560 10564 10569 10573 10576 10580 10584 10588 10591 10594 10597 10601 10605 10610 10615 10619 10624 10629 10632 10635 10639 10644 10650 10659 10669 10676 10684 10692 10701 10707 10713 10720 10726 10732 10739 10746 10753 10760 10766 10774 10785 10794 10800 10807 10815 10821 10827 10833 10840 10846 10852 10858 10862 10866 10873 10880 10884 10888 10891
10576 10569 10564 10560 10556 10552 10548 10544 10540 10537 10535 10533 10532 10531 10531 10530 10530 10531 10531 10532 10533 10534 10536 10538 10540 10542 10543 10546 10550 10554 10558 10562 10566 10569 10572 10576 10580 10585 10588 10590 10593 10596 10600 10604 10608 10612 10618 10622 10624 10628 10633 10637 10645 10655 10664 10672 10680 10688 10695 10700 10706 10712 10719 10727 10734 10742 10749 10756 10765 10776 10783 10789 10797 10804 10810 10816 10822 10829 10836 10842 10849 10854 10858 10865 10871 10877 10881 10885
10576 10569 10564 10559 10555 10552 10548 10545 10541 10537 10534 10532 10530 10529 10528 10528 10527 10527 10528 10528 10528 10529 10530 10532 10534 10536 10537 10539 10542 10547 10551 10555 10558 10561 10564 10568 10573 10578 10581 10583 10585 10587 10589 10593 10597 10601 10607 10611 10614 10617 10621 10626 10633 10642 10651 10660 10668 10676 10682 10686 10692 10698 10705 10713 10721 10729 10737 10745 10754 10763 10772 10780 10788 10793 10799 10805 10811 10818 10825 10832 10839 10845 10850 10856 10863 10868 10873 10878
10576 10570 10564 10558 10554 10550 10547 10543 10540 10537 10534 10532 10530 10528 10526 10526 10525 10524 10524 10524 10524 10525 10525 10526 10527 10529 10531 10533 10536 10539 10543 10547 10550 10553 10557 10560 10565 10570 10573 10575 10577 10579 10581 10583 10587 10591 10596 10600 10604 10607 10610 10615 10621 10628 10637 10647 10655 10662 10667 10671 10678 10685 10692 10701 10709 10717 10725 10733 10741 10751 10761 10770 10778 10782 10787 10794 10800 10808 10816 10822 10829 10836 10842 10848 10853 10859 10864 10870
10576 10569 10564 10559 10554 10550 10546 10542 10539 10536 10534 10531 10529 10527 10525 10524 10523 10522 10521 10521 10521 10521 10521 10521 10522 10524 10526 10529 10531 10532 10535 10538 10542 10546 10549 10552 10556 10560 10564 10567 10568 10571 10573 10575 10578 10581 10586 10590 10593 10596 10600 10604 10609 10616 10623 10632 10641 10647 10652 10658 10666 10673 10681 10690 10698 10705 10713 10721 10729 10738 10748 10758 10766 10772 10777 10783 10790 10798 10806 10813 10819 10827 10834 10839 10844 10850 10856 10862